Detroit, MI

8:15 PM EDT on June 24, 2017 (GMT -0400)
Detroit City

Weather History for KDET - March, 2013

Change the Weather History Date:

Thursday, March 21, 2013

  Actual Average Record
Temperature  
Mean Temperature 24 °F -  
Max Temperature 32 °F 44 °F 82 °F (2012)
Min Temperature 17 °F 29 °F 14 °F (1965)
Degree Days  
Heating Degree Days 40    
Moisture  
Dew Point 17 °F    
Average Humidity 71    
Maximum Humidity 81    
Minimum Humidity 61    
Precipitation  
Precipitation 0.00 in - - ()
Sea Level Pressure  
Sea Level Pressure 29.88 in    
Wind  
Wind Speed 10 mph (WNW)    
Max Wind Speed 16 mph    
Max Gust Speed 24 mph    
Visibility 10 miles    
Events Snow    
Averages and records for this station are not official NWS values.
T = Trace of Precipitation, MM = Missing Value Source: NWS Daily Summary

Daily Weather History Graph

Daily Weather History Graph

Search for Another Location

Airport or City:

Trip Planner

Search our weather history database for the weather conditions in past years. The results will help you decide how hot, cold, wet, or windy it might be!

Date:

Astronomy

Mar. 21, 2013 Rise Set
Actual Time 7:33 AM EDT 7:45 PM EDT
Civil Twilight 7:05 AM EDT 8:13 PM EDT
Nautical Twilight 6:32 AM EDT 8:46 PM EDT
Astronomical Twilight 5:58 AM EDT 9:20 PM EDT
Moon 2:08 PM EDT (3/21) 4:00 AM EDT (3/21)
Length of Visible Light 13h 08m
Length of Day
12h 12m
Waxing Gibbous, 68% of the Moon is Illuminated
Mar 21
Waxing Gibbous
Mar 27
Full
Apr 3
Last Quarter
Apr 10
New
Apr 18
First Quarter

Hourly Weather History & Observations

Time (EDT) Temp. Windchill Dew Point Humidity Pressure Visibility Wind Dir Wind Speed Gust Speed Precip Events Conditions
12:53 AM 19.0 °F 8.2 °F 9.0 °F 65% 29.93 in 10.0 mi WNW 9.2 mph - N/A   Clear
1:53 AM 17.6 °F 9.3 °F 8.6 °F 68% 29.90 in 10.0 mi West 5.8 mph - N/A   Clear
2:53 AM 17.1 °F 6.6 °F 10.0 °F 74% 29.92 in 10.0 mi West 8.1 mph - N/A   Clear
3:53 AM 17.1 °F 6.6 °F 10.0 °F 74% 29.90 in 10.0 mi West 8.1 mph - N/A   Overcast
4:53 AM 18.0 °F 7.7 °F 10.9 °F 74% 29.89 in 10.0 mi West 8.1 mph - N/A   Overcast
5:53 AM 18.0 °F 6.1 °F 10.9 °F 74% 29.88 in 10.0 mi West 10.4 mph - N/A   Overcast
6:53 AM 17.1 °F 5.0 °F 12.0 °F 81% 29.88 in 10.0 mi West 10.4 mph - N/A   Clear
7:53 AM 18.0 °F 7.7 °F 12.9 °F 81% 29.88 in 7.0 mi West 8.1 mph - N/A   Mostly Cloudy
8:18 AM 19.4 °F 7.2 °F 12.2 °F 74% 29.84 in 10.0 mi West 11.5 mph - N/A   Overcast
8:53 AM 19.9 °F 10.1 °F 14.0 °F 78% 29.87 in 10.0 mi West 8.1 mph - N/A   Mostly Cloudy
9:53 AM 21.9 °F 11.7 °F 16.0 °F 78% 29.88 in 10.0 mi WNW 9.2 mph 18.4 mph 0.00 in   Overcast
10:12 AM 21.2 °F 10.1 °F 15.8 °F 80% 29.85 in 5.0 mi West 10.4 mph - 0.00 in Snow Light Snow
10:22 AM 23.0 °F 13.1 °F 17.6 °F 80% 29.84 in 9.0 mi West 9.2 mph - 0.00 in   Overcast
10:29 AM 23.0 °F 11.7 °F 17.6 °F 80% 29.84 in 10.0 mi WNW 11.5 mph - 0.00 in   Overcast
10:37 AM 23.0 °F 13.1 °F 17.6 °F 80% 29.85 in 10.0 mi West 9.2 mph - 0.00 in   Overcast
10:53 AM 25.0 °F 16.3 °F 17.1 °F 72% 29.87 in 10.0 mi WNW 8.1 mph - 0.00 in   Overcast
11:53 AM 28.0 °F 20.8 °F 19.0 °F 69% 29.88 in 10.0 mi WNW 6.9 mph - N/A   Overcast
12:15 PM 28.4 °F 19.1 °F 19.4 °F 69% 29.85 in 10.0 mi WNW 10.4 mph - N/A   Overcast
12:53 PM 30.0 °F 19.5 °F 19.9 °F 66% 29.88 in 10.0 mi West 13.8 mph 20.7 mph N/A   Overcast
1:07 PM 30.2 °F 21.3 °F 19.4 °F 64% 29.84 in 10.0 mi WNW 10.4 mph 18.4 mph N/A   Overcast
1:15 PM 30.2 °F 19.8 °F 19.4 °F 64% 29.84 in 10.0 mi NW 13.8 mph 19.6 mph N/A   Overcast
1:53 PM 30.0 °F 21.7 °F 18.0 °F 61% 29.87 in 10.0 mi NW 9.2 mph 19.6 mph 0.00 in   Overcast
2:53 PM 30.9 °F 22.2 °F 19.0 °F 61% 29.87 in 10.0 mi WNW 10.4 mph - N/A   Overcast
3:53 PM 30.0 °F 18.7 °F 21.0 °F 69% 29.87 in 5.0 mi WNW 16.1 mph 24.2 mph 0.00 in Snow Light Snow
4:53 PM 32.0 °F 23.0 °F 24.1 °F 73% 29.89 in 8.0 mi WNW 11.5 mph - 0.00 in Snow Light Snow
5:53 PM 32.0 °F 23.6 °F 21.0 °F 64% 29.90 in 10.0 mi WNW 10.4 mph 19.6 mph 0.00 in   Overcast
6:03 PM 32.0 °F 23.0 °F 21.2 °F 64% 29.85 in 10.0 mi WNW 11.5 mph 19.6 mph N/A   Overcast
6:53 PM 30.9 °F 20.7 °F 21.0 °F 67% 29.88 in 10.0 mi WNW 13.8 mph 20.7 mph N/A   Overcast
7:53 PM 30.0 °F 19.1 °F 21.9 °F 72% 29.89 in 10.0 mi WNW 15.0 mph 19.6 mph 0.00 in   Overcast
8:53 PM 30.0 °F 19.5 °F 21.9 °F 72% 29.91 in 8.0 mi WNW 13.8 mph 20.7 mph 0.00 in Snow Light Snow
9:53 PM 30.0 °F 21.7 °F 19.9 °F 66% 29.91 in 10.0 mi NW 9.2 mph 18.4 mph 0.00 in   Overcast
10:53 PM 28.9 °F 18.6 °F 17.1 °F 61% 29.92 in 10.0 mi NW 12.7 mph 19.6 mph N/A   Overcast
11:53 PM 28.9 °F 18.6 °F 17.1 °F 61% 29.93 in 10.0 mi WNW 12.7 mph - N/A   Overcast